User: anonymous   Login
Location: Lone Wolf Observatory
(41.0360°N, 89.2260°W)
Time: 04:09:58
(UTC-05:00)
Language:

Cosmos 1378 Rocket - Orbit

View from above orbital plane
View from above orbital plane
View from above satellite
View from above satellite

Ground track
Ground track

The orbit data is extracted from the following two-line orbital elements,

1 13272U 82059B   17230.71806568  .00000091  00000-0  79370-5 0  9994
2 13272  82.5086  80.4229 0017040 271.5439  88.3825 14.84602238901174
Epoch (UTC): 18 August 2017 17:14:00
Eccentricity: 0.0017040
inclination: 82.5086°
perigee height: 603 km
apogee height: 627 km
right ascension of ascending node: 80.4229°
argument of perigee: 271.5439°
revolutions per day: 14.84602238
mean anomaly at epoch: 88.3825°
orbit number at epoch: 90117

The dashed part of the orbit path shows where the satellite is in the earth's shadow,  

DLR